FW8702 Weather Reports


time (UTC)temp
F
wind
direction
speed
knots
gust
knots
rain 1hr
in
rain 24hr
in
rain mn
in
humidity
%
barometer
mb
20260503223024 57 146 0.0 0.0 0.00 0.00 0.00 78 1019.3
20260503221541 57 146 0.0 0.0 0.00 0.00 0.00 78 1019.3
20260503220043 57 146 0.0 0.0 0.00 0.00 0.00 78 1019.1
20260503214507 58 146 0.0 0.0 0.00 0.00 0.00 75 1019.2
20260503213034 58 146 0.0 0.0 0.00 0.00 0.00 74 1019.1
20260503211606 58 146 0.0 0.0 0.00 0.00 0.00 75 1019.1
20260503210105 58 178 0.0 0.0 0.00 0.00 0.00 76 1019.0
20260503204515 58 178 0.0 0.0 0.00 0.00 0.00 76 1019.0
20260503203045 59 178 0.0 0.9 0.00 0.00 0.00 75 1018.9
20260503201510 59 241 0.0 0.0 0.00 0.00 0.00 74 1018.9
20260503200025 59 241 0.0 0.0 0.00 0.00 0.00 73 1018.8
20260503194520 60 241 0.0 0.0 0.00 0.00 0.00 73 1018.6
20260503193030 61 241 0.0 0.0 0.00 0.00 0.00 73 1018.6
20260503191557 62 241 0.0 0.0 0.00 0.00 0.00 71 1018.4
20260503190038 64 241 0.0 0.0 0.00 0.00 0.00 69 1018.1
20260503184624 65 241 0.0 0.0 0.00 0.00 0.00 69 1017.9
20260503183025 66 241 0.0 0.0 0.00 0.00 0.00 66 1017.8
20260503181534 68 241 0.0 0.0 0.00 0.00 0.00 66 1017.9
20260503180047 69 241 0.0 0.0 0.00 0.00 0.00 62 1017.9
20260503174512 70 241 0.0 0.0 0.00 0.00 0.00 58 1017.9
20260503173039 71 241 0.0 0.0 0.00 0.00 0.00 51 1017.9
20260503171502 71 241 0.0 0.0 0.00 0.00 0.00 51 1017.9
20260503081531 66 315 0.0 1.7 0.00 0.00 0.00 64 1020.7
20260503071514 64 290 0.0 0.0 0.00 0.00 0.00 66 1021.1
20260503054539 57 310 0.0 0.0 0.00 0.00 0.00 79 1021.3
20260503053101 56 310 0.0 0.0 0.00 0.00 0.00 80 1021.1
20260503051524 55 307 0.0 0.0 0.00 0.00 0.00 82 1021.0
20260503050105 54 307 0.0 0.0 0.00 0.00 0.00 82 1021.1
20260503044604 54 307 0.0 0.0 0.00 0.00 0.00 82 1021.0
20260503043039 54 307 0.0 0.0 0.00 0.00 0.00 82 1021.1
20260503041538 55 307 0.0 0.0 0.00 0.00 0.00 81 1021.1
20260503040033 55 307 0.0 0.0 0.00 0.00 0.00 80 1021.1
20260503034540 55 357 0.0 0.9 0.00 0.00 0.00 80 1021.1
20260503033002 55 349 0.0 0.0 0.00 0.00 0.00 80 1021.3
20260503031532 55 327 0.0 0.0 0.00 0.00 0.00 82 1021.2
20260503030028 54 297 0.0 0.0 0.00 0.00 0.00 82 1021.2
20260503024537 53 295 0.0 0.0 0.00 0.00 0.00 84 1021.3
20260503023113 53 8 0.0 0.9 0.00 0.00 0.00 84 1021.3
20260503021605 53 3 0.0 0.0 0.00 0.00 0.00 82 1021.3
20260503020015 54 3 0.0 0.0 0.00 0.00 0.00 81 1021.5
20260503014528 54 319 0.0 0.9 0.00 0.00 0.00 82 1021.4
20260503013055 53 307 0.0 0.0 0.00 0.00 0.00 84 1021.5
20260503011522 52 304 0.0 0.0 0.00 0.00 0.00 84 1021.5
20260503010039 52 314 0.0 0.0 0.00 0.00 0.00 84 1021.7
20260503004504 52 208 0.0 0.0 0.00 0.00 0.00 83 1021.9
20260503003030 53 208 0.0 0.0 0.00 0.00 0.00 80 1022.0
20260503001539 52 255 0.0 0.0 0.00 0.00 0.00 80 1022.2
20260503000057 52 259 0.0 0.0 0.00 0.00 0.00 84 1022.4
20260502234534 52 259 0.0 0.0 0.00 0.00 0.00 84 1022.4
20260502233056 52 259 0.0 0.0 0.00 0.00 0.00 84 1022.4
20260502231532 52 259 0.0 0.0 0.00 0.00 0.00 83 1022.5
20260502230100 52 259 0.0 0.0 0.00 0.00 0.00 83 1022.5
20260502224523 53 259 0.0 0.0 0.00 0.00 0.00 82 1022.5